Regional Weather Roundup
Issued by NWS

Home | Current Version | Previous Version | Graphics & Text | Print | Product List | Glossary Off
Versions: 1 2 3 4 5 6 7 8 9 10 11 12 13 14 15 16 17 18 19 20 21 22 23 24 25 26 27 28 29 30 31 32 33 34 35 36 37 38 39 40 41 42 43 44 45 46 47 48 49 50

000
ASUS43 KMPX 260210
RWRMN
WEATHER ROUNDUP FOR MINNESOTA
NATIONAL WEATHER SERVICE TWIN CITIES/CHANHASSEN MN
800 PM CST THU DEC 25 2014


NOTE: "FAIR" INDICATES FEW OR NO CLOUDS BELOW 12,000 FEET WITH NO
SIGNIFICANT WEATHER AND/OR OBSTRUCTIONS TO VISIBILITY. N/A MEANS
CURRENT SKY AND/OR WEATHER CONDITIONS ARE NOT AVAILABLE.

MNZ060>063-068>070-260300-
   Twin Cities Metro

CITY           SKY/WX    TMP DP  RH WIND       PRES   REMARKS
TWIN CITIES    CLOUDY    34  30  85 N6        29.85R WCI  29
ST PAUL        CLOUDY    34  30  85 N3        29.87R
CRYSTAL        CLOUDY    34  31  88 NE5       29.85R FOG     WCI  30
BLAINE         MIX PCPN  34  34 100 CALM      29.85R
LAKEVILLE      CLOUDY    30  28  93 CALM      29.84R
EDEN PRAIRIE   CLOUDY    34  30  85 NE5       29.84R FOG     WCI  30
SOUTH ST PAUL  CLOUDY    34  30  85 CALM      29.85R
LAKE ELMO      CLOUDY    32  32 100 NE3       29.86R
$$
MNZ001>005-007-008-013>017-022>024-027-028-260300-
   Northwest Minnesota

CITY           SKY/WX    TMP DP  RH WIND       PRES   REMARKS
BEMIDJI        CLOUDY    25  21  85 NW8       29.87R WCI  16
HALLOCK        CLOUDY    27  21  80 N8        29.95R WCI  18
ROSEAU         CLOUDY    27  21  80 NW5       29.91R WCI  21
WARROAD        CLOUDY    27  21  80 NW10      29.90R WCI  17
THIEF RVR FALL CLOUDY    27  21  80 N9        29.91R WCI  17
CROOKSTON      CLOUDY    27  23  86 N12       29.94R WCI  16
FOSSTON        CLOUDY    23  21  93 N10       29.90R WCI  12
DETROIT LAKES  CLOUDY    27  23  86 N8        29.89R WCI  18
MOORHEAD       CLOUDY    28  27  93 N10       29.93R WCI  19
PARK RAPIDS    CLOUDY    28  21  75 N8        29.85R WCI  20
MAHNOMEN       CLOUDY    25  22  88 N12       29.89R WCI  14
$$
MNZ006-009>011-018-025>026-260300-
   North Central Minnesota

CITY           SKY/WX    TMP DP  RH WIND       PRES   REMARKS
BAUDETTE       CLOUDY    27  23  85 NW6       29.86R WCI  20
FLAG ISLAND    CLOUDY    25  21  86 NW13      29.88R WCI  13
INTL FALLS     CLOUDY    27  22  81 W6        29.86R WCI  20
WASKISH        CLOUDY    27  23  86 CALM      29.88R
BIG FORK       CLOUDY    27  21  80 NW7       29.87R WCI  19
LONGVILLE      CLOUDY    28  25  86 NW3       29.85S
GRAND RAPIDS   CLOUDY    28  21  74 N5        29.85R WCI  23
CRANE LAKE     CLOUDY    27  21  80 CALM      29.87R
ORR            CLOUDY    27  21  80 NW3       29.83R
COOK           CLOUDY    28  25  86 CALM      29.85R
WALKER         CLOUDY    26  20  79 N5        29.86R WCI  21
$$
MNZ012-019>021-037-260300-
   Northeast Minnesota

CITY           SKY/WX    TMP DP  RH WIND       PRES   REMARKS
DULUTH         CLOUDY    31  25  78 NW3       29.83R
ELY            CLOUDY    28  25  86 CALM      29.83R
HIBBING        CLOUDY    31  21  66 CALM      29.84R
EVELETH        CLOUDY    32  27  80 CALM      29.85R
DULUTH HARBOR  CLOUDY    36  28  75 CALM      29.88R
TWO HARBORS    CLOUDY    34  28  80 CALM      29.83R
SILVER BAY     CLOUDY    34  28  80 CALM      29.84R
GRAND MARAIS     N/A     32  28  85 CALM      29.86R
G MARAIS ARPRT CLOUDY    27  19  74 W3        29.81R
$$
MNZ029>031-032-039>041-046>048-054>057-064-260300-
   West Central Minnesota

CITY           SKY/WX    TMP DP  RH WIND       PRES   REMARKS
FERGUS FALLS   CLOUDY    28  21  74 N6        29.92R WCI  22
WHEATON        CLOUDY    27  25  93 N6        29.92R WCI  20
MORRIS         CLOUDY    28  27  93 N9        29.86S WCI  20
ALEXANDRIA     CLOUDY    29  24  82 N8        29.86R WCI  21
ELBOW LAKE     CLOUDY    28  25  87 N6        29.88R WCI  22
WADENA         CLOUDY    27  23  86 N7        29.85R WCI  19
GLENWOOD       CLOUDY    30  27  86 N7        29.86R WCI  23
APPLETON       LGT SNOW  30  27  86 N12       29.87R WCI  21
BENSON         LGT SNOW  30  27  86 NE8       29.86S WCI  23
ORTONVILLE     CLOUDY    28  25  86 N13       29.88R WCI  18
MADISON        LGT SNOW  32  30  93 N10       29.87R WCI  24
WILLMAR        LGT SNOW  32  30  93 N8        29.85S WCI  25
$$
MNZ033>034-036-042>043-049>051-058-059-260300-
   Central Minnesota

CITY           SKY/WX    TMP DP  RH WIND       PRES   REMARKS
ST CLOUD       LGT SNOW  35  29  78 NE5       29.86R WCI  31
SAUK CENTRE    CLOUDY    30  25  80 N6        29.86R WCI  24
PAYNESVILLE    LGT SNOW  29  29  99 NW7       29.85S WCI  22
AITKIN         CLOUDY    32  25  74 CALM      29.84R
PINE RIVER     CLOUDY    28  25  86 N5        29.89R WCI  23
BRAINERD       CLOUDY    30  24  78 CALM      29.85R
STAPLES        CLOUDY    28  25  86 N6        29.85R WCI  22
LONG PRAIRIE   CLOUDY    30  25  80 N5        29.86R WCI  25
LITTLE FALLS   CLOUDY    32  25  74 CALM      29.87R
LITCHFIELD     MIX PCPN  32  32 100 CALM      29.85R
BUFFALO        LGT SNOW  32  31  95 CALM      29.87R
MAPLE LAKE     LGT SNOW  33  32  99 CALM      29.86R
$$
MNZ037-044-045-052-053-260300-
   East Central Minnesota

CITY           SKY/WX    TMP DP  RH WIND       PRES   REMARKS
PRINCETON      LGT SNOW  34  30  86 CALM      29.87R
MORA           CLOUDY    32  27  80 CALM      29.87R
CAMBRIDGE      LGT SNOW  34  27  75 CALM      29.85R
RUSH CITY      LGT RAIN  32  31  96 CALM      29.87R
MOOSE LAKE     CLOUDY    32  28  86 CALM      29.84R
HINCKLEY       CLOUDY    32  32 100 CALM      29.86R
CLOQUET        CLOUDY    30  27  86 CALM      29.84S
MCGREGOR       CLOUDY    30  27  86 CALM      29.85R
$$
MNZ071>073-080-081-089-090-097-098-260300-
   Southwest Minnesota

CITY           SKY/WX    TMP DP  RH WIND       PRES   REMARKS
MONTEVIDEO     LGT SNOW  28  28 100 NE12      29.87R WCI  18
GRANITE FALLS  CLOUDY    31  30  96 N9        29.87R WCI  23
CANBY          LGT SNOW  29  28  96 N8        29.87R WCI  21
MARSHALL       CLOUDY    30  27  86 N9        29.85R WCI  22
REDWOOD FALLS  CLOUDY    33  31  92 NE3       29.84R
OLIVIA         CLOUDY    30  30 100 CALM      29.84R FOG
PIPESTONE      CLOUDY    28  28 100 NE16      29.79S FOG     WCI  17
WINDOM         MOCLDY    30  30 100 N9        29.79S WCI  22
WORTHINGTON    CLOUDY    30 -17  12 N13       29.78S WCI  20
JACKSON        MOCLDY    32  30  93 NE9       29.78S WCI  24
TRACY          CLOUDY    32  31  98 N10       29.83R FOG     WCI  23
SLAYTON        CLOUDY    30  30  99 N9        29.80F FOG     WCI  22
$$
MNZ065>067-074>077-082>085-091>093-260300-
   South Central Minnesota

CITY           SKY/WX    TMP DP  RH WIND       PRES   REMARKS
MANKATO        CLOUDY    32  27  80 N7        29.81F WCI  26
NEW ULM        MOCLDY    32  30  93 N8        29.82S WCI  25
ST JAMES       MOCLDY    34  30  86 N8        29.81S WCI  27
FAIRMONT       CLOUDY    32  28  86 N8        29.78F WCI  25
GLENCOE        CLOUDY    33  32  98 CALM      29.83S FOG
FARIBAULT      CLOUDY    32  30  93 CALM      29.82S
OWATONNA       CLOUDY    32  28  86 CALM      29.81S
WASECA         CLOUDY    32  30  93 NE7       29.81F WCI  26
ALBERT LEA     CLOUDY    32  30  93 E3        29.79S
$$
MNZ078>079-086>088-094>096-260300-
   Southeast Minnesota

CITY           SKY/WX    TMP DP  RH WIND       PRES   REMARKS
ROCHESTER      CLOUDY    32  28  85 E8        29.81S WCI  25
RED WING       CLOUDY    32  30  93 CALM      29.84S
STANTON        CLOUDY    33  30  91 N3        29.82S
DODGE CENTER   CLOUDY    30  30 100 E5        29.80S WCI  25
WINONA         CLOUDY    34  32  93 CALM      29.86R
AUSTIN         CLOUDY    32  30  93 CALM      29.80R
PRESTON        CLOUDY    34  30  86 SE6       29.81S WCI  29
$$
ABBREVIATIONS USED IN REMARKS
   TC - TEMPERATURES IN CELSIUS
  WCI - WIND CHILL INDEX
   HX - HEAT INDEX
  VSB - VISIBILITY
$$



USA.gov is the U.S. government's official web portal to all federal, state and local government web resources and services.